Location: El Banqueo
(10.5289°N, 67.0444°W)
Time: 07:40:04
(UTC+00:00)

STARLINK-31508 - Pass Details

Date: 18 April 2024
Orbit: 443 x 444 km, 43.0° (Epoch: 25 May)

Event Time Altitude Azimuth Distance (km) Brightness Sun altitude
Rises 23:00:53 0° 319° (NW) 2,417 7.9 -6.0°
Reaches altitude 10° 23:03:03 10° 323° (NW) 1,548 6.7 -6.5°
Maximum altitude 23:06:30 59° 44° (NE) 513 3.3 -7.4°
Drops below altitude 10° 23:09:58 10° 124° (SE) 1,549 5.3 -8.2°
Enters shadow 23:10:08 - 125° (SE) 1,611 5.4 -8.2°
